Regional Weather Roundup
Issued by NWS State College, PA

Home | Current Version | Previous Version | Text Only | Print | Product List | Glossary Off
Versions: 1 2 3 4 5 6 7 8 9 10 11 12 13 14 15 16 17 18 19 20 21 22 23 24 25 26 27 28 29 30 31 32 33 34 35 36 37 38 39 40 41 42 43 44 45 46 47 48 49 50

959
ASUS41 KCTP 262310
RWRCTP

REGIONAL WEATHER ROUNDUP
NATIONAL WEATHER SERVICE STATE COLLEGE PA
700 PM EDT WED APR 26 2017

Note: "fair" indicates few or no clouds below 12,000 feet with no
significant weather and/or obstructions to visibility.

* = STATION THAT DOES NOT REPORT PRECIPITATION /E.G. RAIN...SNOW...ETC/
    THUNDER OR FOG.

PAZ002>004-007>009-013>016-020>023-029>032-270000-
WESTERN PENNSYLVANIA

CITY           SKY/WX    TMP DP  RH WIND       PRES   REMARKS
ERIE           MOSUNNY   77  56  48 S13       29.63S
MEADVILLE      MOSUNNY   74  55  51 VRB7      29.69R
FRANKLIN*      MOSUNNY   72  54  53 S9        29.73R
NEW CASTLE     FAIR      79  58  48 S9        29.68S
BEAVER COUNTY  SUNNY     77  55  47 SE7       29.69R
BUTLER*        SUNNY     73  55  53 SE6       29.72R
PITTSBURGH INT PTSUNNY   77  57  50 SE10      29.69S
PITTSBURGH     SUNNY     75  54  47 S8        29.70S
INDIANA*       SUNNY     75  57  53 W3        29.75S
LATROBE          N/A     75  57  53 SW6       29.73S
WASHINGTON CO* SUNNY     75  57  53 SE9       29.71S
$$

PAZ004>006-010>012-017>019-024>028-033>037-041-042-045-046-049>053-270000-
CENTRAL PENNSYLVANIA

CITY           SKY/WX    TMP DP  RH WIND       PRES   REMARKS
BRADFORD       SUNNY     73  54  51 S6        29.75R
DUBOIS         SUNNY     72  54  53 VRB7      29.74S
CLEARFIELD     SUNNY     73  56  54 SW3       29.75S
JOHNSTOWN      SUNNY     72  56  57 SE6       29.77R
ALTOONA        SUNNY     72  59  63 SE3       29.76S
STATE COLLEGE  SUNNY     72  57  60 SW5       29.76S
WILLIAMSPORT   SUNNY     73  58  59 S7        29.73R
SELINSGROVE    CLEAR     68  59  73 S9        29.76R
FT INDIANTOWN  MOCLDY    69  60  74 W7        29.78R
CAPITAL CITY   PTCLDY    68  57  68 S8        29.78R
HARRISBURG     PTCLDY    67  59  75 CALM      29.78R
YORK           PTCLDY    66  58  75 SE5       29.79R
$$

PAZ038>040-043-044-047-048-054-055-060>062-067>071-270000-
EASTERN PENNSYLVANIA

CITY           SKY/WX    TMP DP  RH WIND       PRES   REMARKS
SCRANTON       CLEAR     72  56  57 VRB5      29.74F
MOUNT POCONO   CLEAR     61  56  83 SE9       29.79S
ALLENTOWN      MOCLDY    70  56  61 E6        29.76F
QUAKERTOWN*    CLOUDY    66  57  72 S3        29.78S
READING        PTCLDY    70  60  70 CALM      29.76R
LANCASTER      CLEAR     66  60  81 SW7       29.78R
COATESVILLE    CLEAR     64  59  82 CALM      29.80R
POTTSTOWN      CLEAR     64  56  75 CALM      29.79F
BLUE BELL      CLOUDY    63  55  77 CALM      29.79S
DOYLESTOWN     CLOUDY    64  57  78 CALM      29.77S
WILLOW GROVE   NOT AVBL
NORTH PHILA    CLOUDY    65  57  75 E3        29.80S
PHILADELPHIA   CLOUDY    63  56  78 S5        29.79S
$$




USA.gov is the U.S. government's official web portal to all federal, state and local government web resources and services.